User: anonymous   Login
Location: Sungai Bunut
(2.6333°N, 113.7333°E)
Time: 00:48:45
(UTC+00:00)
Language:

Cosmos 405 - Orbit

View from above orbital plane
View from above orbital plane
View from above satellite
View from above satellite

Ground track
Ground track

The orbit data is extracted from the following two-line orbital elements,

1 05117U 71028A   22018.51607866  .00009407  00000-0  24128-3 0  9994
2 05117  81.2614 170.8981 0009715 111.3150 312.4788 15.39155636769746
Epoch (UTC): 18 January 2022 12:23:09
Eccentricity: 0.0009715
inclination: 81.2614°
perigee height: 442 km
apogee height: 455 km
right ascension of ascending node: 170.8981°
argument of perigee: 111.3150°
revolutions per day: 15.39155636
mean anomaly at epoch: 312.4788°
orbit number at epoch: 76974

The dashed part of the orbit path shows where the satellite is in the earth's shadow,  

DLR